Louisville Bowman, KY

9:50 PM EST on November 22, 2017 (GMT -0500)
Bowman

Weather History for KLOU - February, 2014

Change the Weather History Date:

Sunday, February 16, 2014

  Actual Average Record
Temperature  
Mean Temperature 32 °F 38 °F  
Max Temperature 37 °F 47 °F 100 °F (2000)
Min Temperature 26 °F 30 °F 2 °F (1958)
Degree Days  
Heating Degree Days 33 27  
Month to date heating degree days 598 454  
Since 1 July heating degree days 3491 3063  
Cooling Degree Days 0 0  
Month to date cooling degree days 0 0  
Year to date cooling degree days 0 0  
Moisture  
Dew Point 23 °F    
Average Humidity 69    
Maximum Humidity 78    
Minimum Humidity 59    
Precipitation  
Precipitation T in 0.10 in 0.74 in (1954)
Month to date precipitation 2.57 1.82  
Year to date precipitation 4.83 5.20  
Sea Level Pressure  
Sea Level Pressure 30.14 in    
Wind  
Wind Speed 6 mph (WNW)    
Max Wind Speed 13 mph    
Max Gust Speed 16 mph    
Visibility 8 miles    
Events Snow    
T = Trace of Precipitation, MM = Missing Value Source: NWS Daily Summary

Daily Weather History Graph

Daily Weather History Graph

Search for Another Location

Airport or City:

Trip Planner

Search our weather history database for the weather conditions in past years. The results will help you decide how hot, cold, wet, or windy it might be!

Date:

Astronomy

Feb. 16, 2014 Rise Set
Actual Time 7:31 AM EST 6:22 PM EST
Civil Twilight 7:04 AM EST 6:49 PM EST
Nautical Twilight 6:33 AM EST 7:20 PM EST
Astronomical Twilight 6:03 AM EST 7:50 PM EST
Moon 8:16 PM EST (2/16) 8:03 AM EST (2/16)
Length of Visible Light 11h 44m
Length of Day
10h 50m
Full, 97% of the Moon is Illuminated
Feb 16
Full
Feb 22
Last Quarter
Mar 1
New
Mar 8
First Quarter
Mar 16
Full

Hourly Weather History & Observations

Time (EST) Temp. Windchill Dew Point Humidity Pressure Visibility Wind Dir Wind Speed Gust Speed Precip Events Conditions
12:16 AM 28.4 °F 23.3 °F 23.0 °F 80% 30.04 in 2.0 mi SSE 4.6 mph - 0.00 in Snow Light Snow
12:25 AM 28.4 °F 24.6 °F 23.0 °F 80% 30.04 in 2.0 mi SSE 3.5 mph - 0.00 in Snow Light Snow
12:36 AM 28.4 °F 23.3 °F 23.0 °F 80% 30.03 in 3.0 mi SE 4.6 mph - 0.00 in Snow Light Snow
12:53 AM 28.0 °F 22.8 °F 23.0 °F 81% 30.05 in 7.0 mi SE 4.6 mph - 0.00 in   Overcast
1:53 AM 28.0 °F 21.7 °F 21.9 °F 78% 30.04 in 8.0 mi SSE 5.8 mph - N/A   Overcast
2:53 AM 28.9 °F 25.2 °F 21.9 °F 75% 30.04 in 8.0 mi SSE 3.5 mph - N/A   Overcast
3:53 AM 28.9 °F 23.9 °F 23.0 °F 78% 30.02 in 8.0 mi South 4.6 mph - N/A   Overcast
4:53 AM 28.9 °F 25.2 °F 23.0 °F 78% 30.02 in 8.0 mi South 3.5 mph - N/A   Overcast
5:53 AM 30.0 °F - 24.1 °F 79% 30.01 in 7.0 mi Calm Calm - N/A   Overcast
6:53 AM 30.0 °F - 24.1 °F 79% 30.02 in 7.0 mi Calm Calm - N/A   Overcast
7:49 AM 30.2 °F 26.7 °F 23.0 °F 75% 30.02 in 8.0 mi WSW 3.5 mph - N/A   Overcast
7:53 AM 30.9 °F 27.5 °F 23.0 °F 72% 30.04 in 8.0 mi WSW 3.5 mph - N/A   Overcast
8:34 AM 32.0 °F 26.4 °F 23.0 °F 69% 30.04 in 8.0 mi West 5.8 mph - N/A   Overcast
8:53 AM 32.0 °F 26.4 °F 24.1 °F 73% 30.07 in 8.0 mi WNW 5.8 mph - N/A   Overcast
9:53 AM 33.1 °F 24.9 °F 24.1 °F 70% 30.10 in 8.0 mi WNW 10.4 mph - N/A   Overcast
10:53 AM 34.0 °F 28.0 °F 25.0 °F 70% 30.12 in 9.0 mi WNW 6.9 mph - N/A   Overcast
11:53 AM 35.1 °F 28.6 °F 25.0 °F 67% 30.14 in 8.0 mi WNW 8.1 mph - N/A   Overcast
12:53 PM 35.1 °F 28.6 °F 26.1 °F 70% 30.15 in 8.0 mi West 8.1 mph - N/A   Overcast
1:53 PM 35.1 °F 27.9 °F 26.1 °F 70% 30.15 in 7.0 mi NW 9.2 mph - N/A   Overcast
2:53 PM 36.0 °F 29.6 °F 26.1 °F 67% 30.16 in 8.0 mi WNW 8.1 mph - N/A   Overcast
3:53 PM 37.0 °F 31.0 °F 25.0 °F 62% 30.18 in 8.0 mi NW 8.1 mph - N/A   Mostly Cloudy
4:32 PM 35.6 °F 27.5 °F 24.8 °F 65% 30.17 in 9.0 mi WNW 11.5 mph - N/A   Mostly Cloudy
4:53 PM 36.0 °F 30.3 °F 25.0 °F 64% 30.19 in 9.0 mi WNW 6.9 mph - N/A   Overcast
5:28 PM 35.6 °F 29.2 °F 24.8 °F 65% 30.19 in 8.0 mi WNW 8.1 mph - N/A   Overcast
5:53 PM 36.0 °F 30.3 °F 25.0 °F 64% 30.22 in 8.0 mi WNW 6.9 mph - N/A   Overcast
6:53 PM 35.1 °F 30.1 °F 25.0 °F 67% 30.25 in 9.0 mi NW 5.8 mph - N/A   Overcast
7:16 PM 35.6 °F 31.7 °F 24.8 °F 65% 30.24 in 8.0 mi NW 4.6 mph - N/A   Overcast
7:53 PM 34.0 °F 28.8 °F 25.0 °F 70% 30.27 in 8.0 mi NW 5.8 mph - N/A   Overcast
8:53 PM 30.0 °F 21.7 °F 19.9 °F 66% 30.29 in 9.0 mi NNE 9.2 mph - N/A   Mostly Cloudy
9:04 PM 30.2 °F 24.3 °F 19.4 °F 64% 30.27 in 10.0 mi NNE 5.8 mph - N/A   Overcast
9:53 PM 28.9 °F 21.9 °F 19.9 °F 69% 30.29 in 10.0 mi NE 6.9 mph - N/A   Mostly Cloudy
10:06 PM 28.4 °F 19.1 °F 19.4 °F 69% 30.27 in 10.0 mi NE 10.4 mph - N/A   Scattered Clouds
10:53 PM 27.0 °F 19.5 °F 19.0 °F 72% 30.29 in 10.0 mi ENE 6.9 mph - N/A   Clear
11:53 PM 26.1 °F 18.4 °F 18.0 °F 71% 30.29 in 10.0 mi ENE 6.9 mph - N/A   Clear